MST,Max TemperatureF,Mean TemperatureF,Min TemperatureF,Max Dew PointF,MeanDew PointF,Min DewpointF,Max Humidity, Mean Humidity, Min Humidity, Max Sea Level PressureIn, Mean Sea Level PressureIn, Min Sea Level PressureIn, Max VisibilityMiles, Mean VisibilityMiles, Min VisibilityMiles, Max Wind SpeedMPH, Mean Wind SpeedMPH, Max Gust SpeedMPH,PrecipitationIn, CloudCover, Events, WindDirDegrees
2014-2-1,24,14,3,18,12,-2,86,76,68,30.11,29.96,29.78,10,8,1,12,5,,0.00,8,,70
2014-2-2,12,2,-9,9,-3,-18,92,77,65,30.09,30.02,29.92,10,6,0,8,3,,0.00,4,,360
2014-2-3,21,6,-9,12,1,-18,85,72,62,29.94,29.89,29.85,10,9,2,7,1,,0.00,1,,345
2014-2-4,17,2,-14,12,2,-20,86,76,65,30.32,30.06,29.93,10,5,1,17,10,22,0.00,7,,61
2014-2-5,-4,-16,-27,-11,-21,-29,83,67,58,30.40,30.34,30.24,10,10,4,10,4,,0.00,1,,28
2014-2-6,-2,-9,-16,-13,-19,-29,71,62,53,30.25,30.09,29.92,10,10,8,8,4,,0.00,3,,23
2014-2-7,15,0,-16,3,-12,-27,78,64,54,29.91,29.83,29.76,10,8,3,7,2,,0.00,1,,324
2014-2-8,32,16,1,19,8,-8,86,71,48,30.07,29.86,29.80,10,9,5,29,5,34,0.00,2,,16
2014-2-9,19,14,10,14,10,5,86,80,74,30.10,30.03,29.97,10,5,1,14,8,,0.00,8,,106
2014-2-10,26,14,1,16,7,-6,86,78,63,30.12,30.07,30.02,10,4,0,8,2,,0.00,4,,35
2014-2-11,28,14,0,21,7,-8,93,77,63,30.11,30.01,29.92,10,4,0,20,2,29,0.00,3,,312
2014-2-12,32,22,12,25,16,5,80,74,59,30.14,29.96,29.81,10,10,10,26,10,31,0.00,0,,28
2014-2-13,46,29,12,34,21,7,93,66,49,29.89,29.83,29.76,10,10,10,25,5,32,0.00,0,,356
2014-2-14,42,34,26,28,24,19,80,68,49,30.07,29.95,29.81,10,10,9,25,10,34,0.00,2,,125
2014-2-15,37,30,23,28,24,18,81,76,70,30.10,29.97,29.76,10,10,10,23,5,28,0.00,3,,55
2014-2-16,59,42,24,37,26,18,86,65,31,30.00,29.83,29.66,10,10,8,38,6,48,0.00,0,,288
2014-2-17,57,40,24,27,17,12,69,38,18,30.07,29.96,29.79,10,10,10,23,10,31,0.00,0,,220
2014-2-18,55,42,30,27,21,14,75,41,22,30.01,29.87,29.73,10,10,10,28,13,34,0.00,0,,314
2014-2-19,57,42,26,32,24,16,80,60,29,29.94,29.67,29.45,10,10,10,33,8,39,0.00,2,,13
2014-2-20,37,32,26,16,9,5,59,39,28,29.97,29.88,29.75,10,10,10,37,20,45,0.00,0,,307
2014-2-21,48,37,26,19,14,9,74,38,24,29.89,29.84,29.79,10,10,10,29,15,36,0.00,0,,294
2014-2-22,51,36,21,25,20,16,80,65,28,30.03,29.88,29.77,10,10,7,26,7,33,0.00,3,,73
2014-2-23,37,29,21,25,19,14,80,73,60,30.06,30.02,29.98,10,8,2,14,8,,0.00,7,,50
2014-2-24,55,36,17,30,16,1,86,68,31,30.28,30.02,29.87,10,6,0,33,7,41,0.00,5,,75
2014-2-25,23,10,-4,12,5,-15,79,63,49,30.36,30.18,29.99,10,8,0,24,9,30,0.01,7,,61
2014-2-26,41,18,-5,25,8,-15,92,71,49,30.26,30.03,29.91,10,7,0,8,3,,0.01,2,,358
2014-2-27,57,38,19,37,24,12,80,64,29,29.90,29.68,29.56,10,10,7,14,4,17,0.00,2,,16
2014-2-28,51,38,24,36,25,19,80,71,54,29.90,29.74,29.57,10,9,5,22,8,26,0.00,4,,91